Back to catalog

QUICK3

AliveScienceSSO
NORAD 64558·PAYLOAD·🇱🇹 Lithuania

Launched Jun 23, 2025 from Vandenberg Space Force Base

Loading…

Next Passes (next 24 hours)

TLE

FreshSource: Space-Track

Epoch: Sep 14, 2026, 13:15 UTC

1 64558U 25135AG  26257.55258600  .00011053  00000-0  39268-3 0  9998
2 64558  97.4823  14.3763 0004602 191.4191 168.6945 15.29184751 68506

Track QUICK3 in real time with AllMySat

Download on the App Store